FW2284 Weather Reports


Display with metric or nautical units.
time (UTC)temp
F
wind
direction
speed
MPH
gust
MPH
rain 1hr
in
rain 24hr
in
rain mn
in
humidity
%
barometer
mb
20260901051530 80 160 3.0 5.0 0.00 0.00 0.00 71 1014.9
20260901050020 81 154 2.0 7.0 0.00 0.00 0.00 70 1014.9
20260901044523 81 202 2.0 6.0 0.00 0.00 0.00 69 1014.9
20260901043019 82 117 3.0 8.0 0.00 0.00 0.00 68 1014.9
20260901041543 82 209 3.0 8.0 0.00 0.00 0.00 67 1015.0
20260901040020 82 144 2.0 7.0 0.00 0.00 0.00 67 1015.0
20260901034517 83 164 3.0 9.0 0.00 0.00 0.00 66 1015.0
20260901033016 83 162 2.0 6.0 0.00 0.00 0.00 66 1014.9
20260901031516 83 190 2.0 6.0 0.00 0.00 0.00 66 1014.9
20260901030015 84 120 3.0 8.0 0.00 0.00 0.00 66 1014.9
20260901024515 84 158 3.0 8.0 0.00 0.00 0.00 65 1014.9
20260901023019 84 144 3.0 6.0 0.00 0.00 0.00 65 1014.7
20260901021517 85 200 3.0 6.0 0.00 0.00 0.00 64 1014.6
20260901020012 85 154 3.0 7.0 0.00 0.00 0.00 63 1014.6
20260901014532 85 162 3.0 6.0 0.00 0.00 0.00 64 1014.2
20260901013011 86 180 2.0 5.0 0.00 0.00 0.00 63 1014.2
20260901011512 86 166 1.0 4.0 0.00 0.00 0.00 63 1014.1
20260901010010 86 196 2.0 4.0 0.00 0.00 0.00 62 1014.0
20260901004508 87 160 1.0 3.0 0.00 0.00 0.00 61 1013.9
20260901003008 88 181 2.0 4.0 0.00 0.00 0.00 59 1013.8
20260901001506 91 184 2.0 3.0 0.00 0.00 0.00 55 1013.9
20260901000006 93 155 0.0 2.0 0.00 0.00 0.00 52 1013.9
20260831234508 94 158 1.0 3.0 0.00 0.00 0.00 51 1014.0
20260831233005 94 151 2.0 5.0 0.00 0.00 0.00 49 1014.0
20260831231505 95 99 2.0 6.0 0.00 0.00 0.00 49 1014.0
20260831230005 96 143 2.0 6.0 0.00 0.00 0.00 48 1013.9
20260831224503 96 160 1.0 9.0 0.00 0.00 0.00 50 1014.0
20260831223003 97 205 3.0 5.0 0.00 0.00 0.00 48 1013.9
20260831221603 96 163 5.0 10.0 0.00 0.00 0.00 48 1014.1
20260831220100 97 155 4.0 9.0 0.00 0.00 0.00 45 1014.1
20260831214606 97 200 5.0 12.0 0.00 0.00 0.00 46 1014.0
20260831213058 97 168 4.0 11.0 0.00 0.00 0.00 45 1014.1
20260831211557 97 172 2.0 10.0 0.00 0.00 0.00 46 1014.1
20260831210055 97 225 4.0 8.0 0.00 0.00 0.00 46 1014.1
20260831204605 97 250 3.0 10.0 0.00 0.00 0.00 47 1014.1
20260831203052 96 214 3.0 11.0 0.00 0.00 0.00 49 1014.1
20260831201551 96 161 6.0 10.0 0.00 0.00 0.00 46 1014.3
20260831200049 96 114 4.0 11.0 0.00 0.00 0.00 48 1014.3
20260831194548 96 110 5.0 12.0 0.00 0.00 0.00 48 1014.4
20260831193047 96 152 4.0 12.0 0.00 0.00 0.00 49 1014.5
20260831191545 95 194 4.0 13.0 0.00 0.00 0.00 48 1014.8
20260831190044 95 131 2.0 10.0 0.00 0.00 0.00 49 1014.8
20260831184542 95 159 3.0 9.0 0.00 0.00 0.00 50 1014.9
20260831183041 95 150 3.0 8.0 0.00 0.00 0.00 50 1015.2
20260831181548 95 219 4.0 8.0 0.00 0.00 0.00 48 1015.4
20260831180043 94 294 4.0 10.0 0.00 0.00 0.00 48 1015.4
20260831174536 93 233 3.0 9.0 0.00 0.00 0.00 50 1015.7
20260831173032 92 219 5.0 8.0 0.00 0.00 0.00 50 1015.9
20260831171532 91 214 4.0 10.0 0.00 0.00 0.00 51 1016.0
20260831170032 91 190 4.0 9.0 0.00 0.00 0.00 54 1016.2
20260831164528 90 308 5.0 12.0 0.00 0.00 0.00 52 1016.4
20260831163024 89 269 5.0 10.0 0.00 0.00 0.00 54 1016.4
20260831161522 89 233 2.0 9.0 0.00 0.00 0.00 58 1016.5
20260831160019 88 170 4.0 8.0 0.00 0.00 0.00 55 1016.5
20260831154516 87 194 4.0 10.0 0.00 0.00 0.00 57 1016.5
20260831153015 85 192 3.0 10.0 0.00 0.00 0.00 57 1016.2
20260831151515 84 266 4.0 11.0 0.00 0.00 0.00 57 1016.5
20260831150006 83 234 4.0 10.0 0.00 0.00 0.00 57 1016.5
20260831144503 83 238 4.0 8.0 0.00 0.00 0.00 58 1016.3
20260831143114 82 177 5.0 12.0 0.00 0.00 0.00 59 1016.2
20260831141604 81 209 4.0 11.0 0.00 0.00 0.00 58 1016.3
20260831140054 80 195 4.0 9.0 0.00 0.00 0.00 61 1016.1
20260831134551 79 143 4.0 8.0 0.00 0.00 0.00 61 1016.1
20260831133047 79 217 3.0 7.0 0.00 0.00 0.00 62 1016.1
20260831131545 78 217 3.0 6.0 0.00 0.00 0.00 64 1015.9
20260831130046 77 139 3.0 5.0 0.00 0.00 0.00 63 1015.9
20260831124540 76 215 3.0 6.0 0.00 0.00 0.00 64 1015.8
20260831123039 75 183 2.0 5.0 0.00 0.00 0.00 64 1015.6
20260831121537 75 158 2.0 6.0 0.00 0.00 0.00 65 1015.4
20260831120036 73 199 1.0 4.0 0.00 0.00 0.00 67 1015.2
20260831114547 73 204 3.0 7.0 0.00 0.00 0.00 67 1015.1
20260831113025 73 149 2.0 5.0 0.00 0.00 0.00 67 1015.1
20260831111524 73 153 3.0 6.0 0.00 0.00 0.00 67 1015.1
20260831110026 73 152 2.0 6.0 0.00 0.00 0.00 67 1015.1
20260831104534 73 193 3.0 5.0 0.00 0.00 0.00 67 1015.2
20260831103018 73 188 2.0 5.0 0.00 0.00 0.00 67 1014.9
20260831101524 73 155 2.0 5.0 0.00 0.00 0.00 67 1015.0
20260831100016 73 169 3.0 6.0 0.00 0.00 0.00 67 1014.9
20260831094516 73 189 2.0 4.0 0.00 0.00 0.00 67 1015.1
20260831093014 73 193 2.0 5.0 0.00 0.00 0.00 67 1014.9
20260831091528 73 159 2.0 3.0 0.00 0.00 0.00 66 1015.0
20260831090017 74 195 1.0 6.0 0.00 0.00 0.00 66 1015.0
20260831084515 74 174 2.0 6.0 0.00 0.00 0.00 64 1014.8
20260831083007 75 168 2.0 4.0 0.00 0.00 0.00 64 1014.7
20260831081507 75 214 2.0 7.0 0.00 0.00 0.00 63 1014.6
20260831080005 75 158 2.0 6.0 0.00 0.00 0.00 63 1014.6
20260831074505 75 224 1.0 3.0 0.00 0.00 0.00 64 1014.7
20260831073004 75 187 1.0 4.0 0.00 0.00 0.00 63 1014.7
20260831071600 76 201 1.0 4.0 0.00 0.00 0.00 61 1014.7
20260831070100 76 193 2.0 7.0 0.00 0.00 0.00 61 1014.7
20260831064608 77 191 3.0 5.0 0.00 0.00 0.00 60 1014.9
20260831063058 76 203 2.0 4.0 0.00 0.00 0.00 60 1015.0
20260831061558 76 153 2.0 6.0 0.00 0.00 0.00 62 1015.1
20260831060057 76 169 1.0 3.0 0.00 0.00 0.00 62 1015.1
20260831054604 76 156 0.0 2.0 0.00 0.00 0.00 62 1015.0
20260831053053 77 148 1.0 4.0 0.00 0.00 0.00 61 1014.9